Regional Weather Roundup
Issued by NWS Wakefield, VA

Home | Current Version | Previous Version | Graphics & Text | Print | Product List | Glossary On
Versions: 1 2 3 4 5 6 7 8 9 10 11 12 13 14 15 16 17 18 19 20 21 22 23 24 25 26 27 28
000
ASUS41 KAKQ 241510
RWRAKQ

REGIONAL WEATHER ROUNDUP
NATIONAL WEATHER SERVICE WAKEFIELD VA
1100 AM EDT THU APR 24 2014

Note: "fair" indicates few or no clouds below 12,000 feet with no
significant weather and/or obstructions to visibility. * = Denotes
station may not report precipitation (e.g., rain,snow,etc.),
thunder or fog.

VAZ042-051-052>054-056-241600-
NORTHERN VIRGINIA

CITY           SKY/WX    TMP DP  RH WIND       PRES   REMARKS
WASH NATIONAL  MOSUNNY   55  21  26 N13G23    30.13F
DULLES         MOSUNNY   50  19  29 NW10      30.14S
FORT BELVOIR   SUNNY     55  19  24 NW12      30.14F
QUANTICO       MOSUNNY   54  17  23 VRB6      30.15F
FREDERICKSBRG* SUNNY     56  22  27 NW7       30.14S
STAFFORD*      MOSUNNY   54  24  31 N8G16     30.18S
WARRENTON      SUNNY     55  31  40 N10       30.14S
CULPEPER*      MOSUNNY   55  14  19 NW8       30.17R
MANASSAS*      SUNNY     54  21  28 N7G17     30.15
LEESBURG*      SUNNY     52  28  40 NW16G22   30.15S
WINCHESTER     MOSUNNY   50  21  32 W8        30.14S
$$

VAZ048-049-060>072-079>083-241600-
CENTRAL AND SOUTH CENTRAL VIRGINIA...AND NORTH CENTRAL NORTH CAROLINA

CITY           SKY/WX    TMP DP  RH WIND       PRES   REMARKS
RICHMOND       MOSUNNY   58  23  26 NW8G25    30.14S
CHESTERFIELD*  SUNNY     55  19  24 NE7       30.15F
HANOVER        SUNNY     56  23  27 VRB6      30.15F
TAPPAHANNOCK*  SUNNY     56  16  21 W9        30.13F
CHARLOTTSVILLE PTSUNNY   53  20  27 CALM      30.14S
ORANGE*        MOSUNNY   52  23  32 NW7       30.17R
LOUISA*        MOSUNNY   55  21  26 NW8       30.14S
FARMVILLE*     MOSUNNY   59  21  23 N3        30.12S
SOUTH HILL*    SUNNY     59  27  29 N5        30.19S
ROANOKE RAPIDS SUNNY     59  30  33 N3        30.15R
RALEIGH        PTSUNNY   59  31  34 NE8       30.17R
$$

VAZ088>098-241600-
SOUTHEAST VIRGINIA

CITY           SKY/WX    TMP DP  RH WIND       PRES   REMARKS
NORFOLK        SUNNY     55  31  39 N12       30.12S
VIRGINIA BEACH MOSUNNY   55  30  38 NW16G22   30.12R
NORFOLK NAVAL  MOSUNNY   58  28  32 NW7       30.14S
WEST POINT*      N/A    N/A N/A N/A MISG        N/A
NEWPORT NEWS   SUNNY     61  23  23 N14       30.13S
LANGLEY AFB    SUNNY     56  26  31 VRB7      30.13S
FORT EUSTIS    SUNNY     56  30  37 NW9       30.11F
WILLIAMSBURG*  SUNNY     61  27  27 NW12      30.13F
FRANKLIN*      SUNNY     59  23  25 NW7       30.14S
WAKEFIELD      SUNNY     58  24  27 VRB7      30.14S
$$

VAZ020-022-025-037-045-241600-
WESTERN AND SOUTHWEST VIRGINIA

CITY           SKY/WX    TMP DP  RH WIND       PRES   REMARKS
STAUNTON*      CLOUDY    48  28  45 CALM      30.16S
HOT SPRINGS VA CLOUDY    45  21  39 CALM      30.14F
LYNCHBURG      PTSUNNY   57  20  23 VRB3      30.15S
DANVILLE       MOSUNNY   60  31  33 VRB3      30.15R
MARTINSVILLE   PTSUNNY   60  31  34 SE3       30.16F
ROANOKE        CLOUDY    53  31  42 CALM      30.16S
BLACKSBURG     PTSUNNY   52  30  43 CALM      30.16S
DUBLIN*        CLOUDY    50  34  53 E5        30.15S
MARION*        CLOUDY    53  32  45 E8        30.14S
HILLSVILLE*    MOSUNNY   54  27  35 E5        30.15F
RICHLANDS*     MOSUNNY   59  32  35 NW3       30.10R
WISE*          PTSUNNY   59  28  31 CALM      30.10S
ABINGDON*      MOSUNNY   61  32  34 E6        30.09S
$$

MDZ021>025-VAZ099-100-241600-
SOUTHERN MARYLAND AND THE DELMARVA PENINSULA

CITY           SKY/WX    TMP DP  RH WIND       PRES   REMARKS
PATUXENT RIVER MOSUNNY   54  18  24 NW13      30.11F
BAY BRIDGE APT SUNNY     52  21  30 NW13G21   30.11S
LEONARDTOWN    SUNNY     54  19  26 N7        30.12F
DOVER          SUNNY     53  19  26 W18G28    30.02S
GEORGETOWN     SUNNY     54  17  23 NW13G18   30.06S
EASTON         SUNNY     54  25  32 N16G24    30.13S
CAMBRIDGE      SUNNY     54  23  30 NW13      30.10S
SALISBURY      SUNNY     57  21  24 NW16G22   30.07S
OCEAN CITY     SUNNY     55  22  27 NW16G26   30.06R
WALLOPS ISLAND SUNNY     57  27  31 NW14G23   30.08S
ACCOMACK*      SUNNY     52  28  40 NW13G25   30.11S
$$

NCZ012>017-030>032-241600-
EASTERN NORTH CAROLINA

CITY           SKY/WX    TMP DP  RH WIND       PRES   REMARKS
ELIZABETH CITY SUNNY     58  28  32 VRB7      30.13R
AHOSKIE*       SUNNY     57  28  32 N8        30.15S
EDENTON*       SUNNY     58  27  31 N5        30.14R
CURRITUCK*     SUNNY     59  24  26 N9        30.12F
KILL DEVIL HLS SUNNY     54  37  51 N6G16     30.12R
MANTEO         SUNNY     54  36  50 N9        30.13R
CAPE HATTERAS  SUNNY     58  38  47 MISG      30.13R
GOLDSBORO      SUNNY     58  32  37 NE8       30.14S
WASHINGTON     SUNNY     58  18  20 NW6       30.15S
GREENVILLE     SUNNY     59  30  33 N6        30.16S
NEW BERN       SUNNY     60  34  37 NE6       30.16S
WILMINGTON     SUNNY     66  36  32 N8        30.13S
$$

VAZ048-241600-
ELSEWHERE

CITY           SKY/WX    TMP DP  RH WIND       PRES   REMARKS
HARRISBURG PA  SUNNY     53  29  39 NW16G22   30.09F
BALTIMORE      MOSUNNY   53  19  26 NW9G20    30.10S
ANNAPOLIS      SUNNY     52  22  30 NW12      30.10F
ANDREWS AFB    SUNNY     53  19  26 NW15      30.12S
WILMINGTON DE  SUNNY     53  20  27 NW20      30.07F
PHILADELPHIA   SUNNY     52  13  21 NW21G29   30.05F
WILDWOOD NJ*   SUNNY     52  23  32 NW14G25   30.04F
ATLANTIC CITY  SUNNY     53  16  23 NW25G35   29.99F
HENDERSON NC   SUNNY     57  29  33 CALM      30.16S
GREENSBORO     PTSUNNY   59  30  33 VRB3      30.15R
ROCKY MOUNT    SUNNY     59  28  30 N3        30.16R
FAYETTEVILLE   SUNNY     61  34  36 E8        30.15R
CHARLOTTE      SUNNY     62  34  35 VRB6      30.15S
$$

VAZ100-241600-
MARINE

STATION/POSITION TIME  TEMP    WIND        PRES    WAVE   SWELL
                       AIR SEA DIR/SP/G            HT/PER HT/PER
                 (UTC) (F)     (DEG/KT/KT) (MB)    (FT/S) (FT/S)
44066 TX TWR #4  1500   44 45  300/ 25/ 33 1011.7F   7/ 6
CAPE MAY NJ      1500   49 57  330/ 20/ 29 1016.8F
LEWES DE         1500   49 51  320/ 21/ 24 1016.9S
15NM E FENWICK I 1500   47 46              1017.3R   4/ 5
OCEAN-CITY-INLET 1500   51 48  330/ 11/ 18 1017.3F
WACHAPREAGUE VA  1500   54 55  300/  6/ 15 1019.0S
THOMAS POINT MD  1500   50 53  330/ 13/ 17 1019.7F
GOOSES REEF MD   1500   49     360/ 12/ 14   N/A
COVE POINT MD    1500   49      10/  9/ 12 1019.6F
SOLOMONS ISLAND  1500      54                N/A
BISHOPS HEAD MD  1500   50 52  310/ 19/ 22 1019.1F
PINEY POINT MD   1500          310/ 13/ 15   N/A
POTOMAC MD       1500   51     320/ 12/ 14 1019.3F
CAMBRIDGE MD     1500   50 56  310/ 13/ 19 1018.7F
LEWISETTA VA     1500   51 56  320/ 10/ 13 1019.8F
RAPPAHANNOCK LGT 1500          330/ 15/ 17 1020.2F
STINGRAY PT      1500   52     330/  8/ 12 1020.0F
YORK RVR RNG VA  1500   52     360/ 11/ 13 1019.2F
YORKTOWN VA      1500   52 56  300/ 12/ 15 1019.7F
JAMESTOWN VA     1500   53     340/ 12/ 16   N/A
DOMINION TERM VA 1500   52     300/ 11/ 14 1020.1F
KIPTOPEKE VA     1500      55  350/ 16/ 19   N/A
CHES BAY BRIDGE  1500   51 54  310/ 12/ 15 1020.1S
CAPE HENRY VA    1500   50     320/ 14/ 16   N/A
CHESAPEAKE LGHT  1400   49     330/ 17/ 18 1020.0R
WILLOUBY STN VA  1500   53     330/  7/ 10 1019.3S
S CRANEY ISL VA  1500          320/  7/  9 1020.2S
CAPE HENRY BUOY  1500      47                N/A     3/ 4
1ST LANDING BUOY 1500      49                N/A     3/ 4   2/13
64NM E OF VA BCH 1500   49 49  330/ 14/ 17 1019.1R   5/ 6   2/12
DUCK PIER NC     1500   51 52   10/ 11/ 14 1019.2R
44100 DUCK FRF   1500      49                N/A     4/ 5
44056 DUCK FRF   1500      52                N/A     3/ 6
OREGON INLET NC  1500   52 54  360/ 12/ 16 1020.1S
HATTERAS NC      1500   54 60  360/ 10/ 12 1020.6R
CAPE LOOKOUT NC  1400   55      40/ 12/ 15 1020.2R
FRYING PAN SHLS  1500   63 67   50/ 17/ 21 1019.0R   5/ 5   2/ 8
$$



USA.gov is the U.S. government's official web portal to all federal, state and local government web resources and services.